Weather History for Covington, KY

Change the Weather History Date:

Tuesday, October 9, 2012

  Actual Average Record
Temperature  
Mean Temperature 49 °F 58 °F  
Max Temperature 62 °F 69 °F 90 °F (1939)
Min Temperature 35 °F 48 °F 31 °F (1951)
Degree Days  
Heating Degree Days 16 8  
Month to date heating degree days 86 61  
Since 1 July heating degree days 163 119  
Cooling Degree Days 0 1  
Month to date cooling degree days 1 11  
Year to date cooling degree days 1433 1116  
Moisture  
Dew Point 38 °F    
Average Humidity 71    
Maximum Humidity 100    
Minimum Humidity 42    
Precipitation  
Precipitation 0.00 in 0.11 in 1.88 in (1999)
Month to date precipitation 1.11 0.93  
Year to date precipitation 30.07 33.35  
Snow  
Snow 0.00 in 0.00 in 0.00 in ()
Month to date snowfall 0.0 0.0  
Since 1 July snowfall 0.0 0.0  
Since 1 September snowfall 0.0 0.0  
Snow Depth 0.00 in    
Sea Level Pressure  
Sea Level Pressure 30.10 in    
Wind  
Wind Speed 7 mph (South)    
Max Wind Speed 14 mph    
Max Gust Speed 18 mph    
Visibility 9 miles    
Events      
T = Trace of Precipitation, MM = Missing Value Source: NWS Daily Summary

Daily Weather History Graph

Daily Weather History Graph

Search for Another Location

Airport:

Trip Planner

Search our weather history database for the weather conditions in past years. The results will help you decide how hot, cold, wet, or windy it might be!

Date:

Astronomy

Oct. 09, 2012 Rise Set
Actual Time 7:42 AM EDT 7:08 PM EDT
Civil Twilight 7:16 AM EDT 7:34 PM EDT
Nautical Twilight 6:45 AM EDT 8:05 PM EDT
Astronomical Twilight 6:14 AM EDT 8:36 PM EDT
Moon 1:21 AM EDT (10/9) 3:32 PM EDT (10/9)
Length of Visible Light 12h 18m
Length of Day
11h 25m
Last Quarter, 37% of the Moon is Illuminated
Oct 9
Last Quarter
Oct 15
New
Oct 21
First Quarter
Oct 29
Full
Nov 6
Last Quarter

Hourly Weather History & Observations

Time (EDT) Temp. Windchill Dew Point Humidity Pressure Visibility Wind Dir Wind Speed Gust Speed Precip Events Conditions
12:52 AM 41.0 °F 37.1 °F 37.0 °F 86% 30.17 in 10.0 mi South 5.8 mph - N/A   Clear
1:52 AM 39.0 °F 34.0 °F 36.0 °F 89% 30.17 in 10.0 mi South 6.9 mph - N/A   Clear
2:52 AM 39.9 °F 36.7 °F 36.0 °F 86% 30.17 in 10.0 mi South 4.6 mph - N/A   Clear
3:52 AM 39.0 °F 36.8 °F 36.0 °F 89% 30.15 in 9.0 mi South 3.5 mph - N/A   Clear
4:52 AM 36.0 °F 32.1 °F 34.0 °F 93% 30.16 in 6.0 mi South 4.6 mph - N/A   Clear
5:52 AM 36.0 °F 32.1 °F 35.1 °F 97% 30.16 in 6.0 mi South 4.6 mph - N/A   Clear
7:52 AM 37.0 °F 32.4 °F 35.1 °F 93% 30.17 in 6.0 mi South 5.8 mph - N/A   Clear
8:52 AM 41.0 °F 37.1 °F 39.0 °F 93% 30.17 in 8.0 mi South 5.8 mph - N/A   Clear
10:52 AM 51.1 °F - 41.0 °F 68% 30.17 in 10.0 mi South 9.2 mph - N/A   Clear
11:52 AM 54.0 °F - 42.1 °F 64% 30.16 in 10.0 mi SSW 10.4 mph - N/A   Partly Cloudy
12:52 PM 55.9 °F - 39.9 °F 55% 30.14 in 10.0 mi SSW 11.5 mph 17.3 mph N/A   Partly Cloudy
1:52 PM 57.9 °F - 39.0 °F 49% 30.09 in 10.0 mi South 6.9 mph - N/A   Partly Cloudy
2:52 PM 60.1 °F - 39.0 °F 46% 30.05 in 10.0 mi SSW 10.4 mph 17.3 mph N/A   Partly Cloudy
3:52 PM 61.0 °F - 39.0 °F 44% 30.03 in 10.0 mi South 9.2 mph - N/A   Partly Cloudy
4:52 PM 61.0 °F - 39.9 °F 46% 30.01 in 10.0 mi South 9.2 mph - N/A   Partly Cloudy
5:52 PM 60.1 °F - 37.9 °F 44% 30.01 in 10.0 mi SSW 8.1 mph - N/A   Partly Cloudy
6:52 PM 57.0 °F - 39.0 °F 51% 30.00 in 10.0 mi South 6.9 mph - N/A   Partly Cloudy
7:52 PM 51.1 °F - 39.0 °F 63% 30.01 in 10.0 mi South 8.1 mph - N/A   Partly Cloudy
8:52 PM 50.0 °F - 37.9 °F 63% 30.01 in 10.0 mi South 5.8 mph - N/A   Partly Cloudy
10:52 PM 46.9 °F - 37.9 °F 71% 29.99 in 10.0 mi South 6.9 mph - N/A   Clear
11:52 PM 46.0 °F 42.5 °F 39.0 °F 76% 29.97 in 10.0 mi South 6.9 mph - N/A   Clear